CAPE
39 1 25 30 27 0 0 0 0 0 0 0 0 0 0 0 0 0 0 0 0 0 0 0 0 0 0 0 0 0 0 1 0 0 0 0 0 0 0 1 9 17 33 9
35 23 39 48 34 0 0 0 0 0 0 0 0 0 0 0 0 0 0 0 0 0 0 0 0 0 0 0 0 0 0 3 7 0 0 0 0 0 0 0 0 69 18 2
52 41 45 46 49 0 0 0 0 1 2 0 0 0 0 0 0 0 0 0 0 0 0 0 0 0 0 0 0 0 0 5 0 0 0 0 0 0 0 0 6 4 16 57
67 59 74 61 45 0 0 0 0 11 0 68 61 64 0 0 0 0 0 0 0 0 0 0 0 0 0 0 0 0 0 0 7 0 0 2 0 0 0 0 0 0 0 3
70 58 93 83 69 2 0 2 0 0 0 0 0 0 0 0 0 3 0 0 0 0 0 0 0 0 0 0 0 0 0 0 5 7 0 0 2 0 0 0 0 0 0 0
83 94 105 103 88 2 44 25 1 0 0 0 0 0 0 2 51 0 0 8 0 0 2 4 8 12 0 0 0 0 0 0 33 21 33 41 80 9 2 0 0 0 0 0
101 95 103 106 117 70 78 51 14 0 0 7 0 0 0 0 0 0 0 0 0 5 0 0 0 0 0 0 0 0 33 99 35 71 137 129 7 14 4 0 0 0 0 0
137 130 121 115 131 122 47 64 0 0 0 3 0 0 0 0 0 0 0 8 5 0 0 0 31 59 38 0 0 0 4 214 149 220 281 96 29 9 3 7 0 0 0 0
148 161 122 110 131 130 141 148 30 0 0 1 0 0 0 0 0 0 0 0 17 12 3 106 144 7 28 5 0 0 21 112 523 451 230 218 401 283 236 271 34 0 0 0
140 158 146 122 125 144 104 105 181 21 0 9 1 17 10 0 0 2 4 0 9 102 326 217 162 146 88 66 75 206 383 451 354 328 368 373 290 190 297 187 134 328 8 0
119 122 148 114 118 96 193 129 96 50 0 0 35 0 0 0 0 0 2 0 86 127 280 229 226 293 183 190 221 419 356 378 289 445 483 433 76 369 405 610 772 401 332 272
126 74 66 65 51 33 71 50 161 266 58 0 8 0 0 1 0 0 1 1 86 81 74 101 74 336 428 422 387 717 475 383 398 670 658 174 83 278 293 475 557 939 540 437
55 25 26 25 29 4 57 161 33 37 2 0 1 1 0 0 0 0 0 1 18 81 56 48 15 148 399 524 467 626 862 811 632 562 136 97 51 6 62 126 160 324 733 818
23 20 27 34 26 14 35 99 234 114 0 0 0 0 0 1 2 0 0 0 7 36 57 43 94 85 180 725 710 749 193 574 653 351 98 32 16 11 97 102 110 108 258 554
12 16 37 30 23 31 118 112 79 67 66 0 0 0 2 0 0 0 1 0 22 49 21 51 73 11 20 280 204 107 131 412 697 324 77 96 18 12 72 70 35 33 104 120
32 18 57 28 35 10 69 39 1 6 60 0 9 7 42 73 24 7 11 0 0 0 18 24 0 43 66 333 59 35 94 125 94 365 95 7 9 23 40 17 23 31 47 62
21 33 24 17 49 73 62 0 1 0 0 42 46 52 135 60 33 1 0 6 6 8 0 0 0 19 7 7 25 43 81 76 82 93 2 2 10 39 5 19 12 17 20 15
4 1 0 22 41 31 0 7 3 1 0 41 31 13 152 38 7 8 0 0 0 0 1 0 2 0 7 31 27 111 182 75 26 20 28 29 6 0 5 0 17 6 0 0
0 0 0 1 8 1 11 9 17 19 0 0 0 7 83 85 40 4 0 0 0 0 0 0 0 0 14 9 47 129 231 79 15 0 11 20 8 0 0 0 1 1 0 0
0 2 64 56 61 0 1 1 7 0 0 18 15 17 70 40 98 0 0 0 0 0 10 43 0 23 25 34 54 90 49 36 11 0 0 4 6 1 1 1 4 15 27 20
13 15 15 41 0 10 30 21 0 0 0 30 37 50 70 57 63 97 22 16 27 0 3 0 1 22 1 13 8 0 0 0 0 23 25 11 18 12 31 7 23 7 0 1
0 0 0 0 30 23 1 52 0 16 6 23 68 50 35 51 47 68 87 73 82 0 104 0 0 0 2 0 0 28 79 69 70 58 55 79 52 16 7 3 3 0 0 0
0 0 0 39 84 102 75 47 22 27 63 23 97 98 76 87 50 119 117 72 43 181 0 0 0 0 0 0 1 25 24 32 21 41 28 6 5 5 9 11 9 13 11 12
1 0 0 2 23 42 85 93 26 61 4 11 46 126 80 70 67 66 74 227 155 9 0 1 2 9 0 0 3 57 42 24 5 1 0 0 1 1 2 30 47 36 24 16
0 0 1 7 18 50 95 97 146 94 17 23 29 23 25 96 45 67 156 111 34 51 17 24 49 27 23 69 66 55 52 32 9 6 3 0 0 0 0 1 20 39 43 30
40 43 75 102 107 119 99 84 122 68 61 113 125 109 45 119 75 94 64 21 37 44 32 16 68 91 151 174 147 60 53 27 15 17 14 16 19 10 2 1 0 0 3 9
59 100 60 74 84 77 49 36 28 25 198 211 142 118 124 111 35 5 5 14 112 194 145 166 247 244 246 199 141 127 106 85 75 50 41 71 44 24 4 7 23 18 16 1
CIN
0 0 0 0 -5 0 0 0 0 0 0 0 0 0 0 0 0 0 0 0 0 0 0 0 0 0 0 0 0 0 0 0 0 0 0 0 0 0 0 0 0 0 0 0
0 0 0 0 -8 0 0 0 0 0 0 0 0 0 0 0 0 0 0 0 0 0 0 0 0 0 0 0 0 0 0 0 0 0 0 0 0 0 0 0 0 0 0 0
0 0 0 -1 -7 0 0 0 0 0 0 0 0 0 0 0 0 0 0 0 0 0 0 0 0 0 0 0 0 0 0 0 0 0 0 0 0 0 0 0 0 0 0 0
0 -1 0 -3 -6 0 0 0 0 0 0 0 -2 0 0 0 0 0 0 0 0 0 0 0 0 0 0 0 0 0 0 0 0 0 0 0 0 0 0 0 0 0 0 0
-1 0 0 -2 -6 -4 0 0 0 0 0 0 0 0 0 0 0 0 0 0 0 0 0 0 0 0 0 0 0 0 0 0 0 0 0 0 0 0 0 0 0 0 0 0
0 0 0 -3 -4 -2 -1 0 0 0 0 0 0 0 0 -6 -4 -3 0 -1 -1 0 0 -19 -17 -3 0 0 0 0 0 0 -2 0 0 0 0 0 0 0 0 0 0 0
0 0 0 -2 -4 -5 -3 -1 0 0 0 0 0 0 0 0 0 0 0 0 0 -2 0 0 0 0 0 0 0 0 -8 -7 0 -1 -1 0 0 0 0 0 0 0 0 0
0 0 0 0 -1 -2 -1 -8 0 0 0 0 0 0 0 0 0 0 0 -20 -7 -1 0 0 -1 0 0 0 0 0 -11 0 0 0 0 0 0 0 -4 -5 0 0 0 0
0 0 0 0 0 -2 0 0 -1 0 0 0 0 0 0 0 0 0 -6 0 -14 -16 -31 0 0 0 0 -1 0 0 -13 -20 0 0 0 0 -60 -95 -150 -140 -17 0 0 0
0 0 0 0 0 -3 -2 0 0 0 0 -1 0 -1 0 0 0 -1 -62 0 -50 -14 0 0 0 0 0 0 0 0 0 0 0 0 0 -2 -145 -185 -167 -43 -30 -146 -3 0
-1 -2 0 0 -1 -2 -1 0 -5 0 0 0 0 0 0 0 0 0 0 0 -32 -11 0 0 -2 0 0 0 -1 0 0 0 0 0 0 0 -261 -113 -62 -163 -122 -152 -155 -129
-4 -5 0 0 -2 -6 -3 0 -2 0 0 0 0 0 0 0 0 0 0 -1 0 0 -2 -1 -12 -8 0 0 0 -4 0 -1 0 -3 -4 -171 -236 -250 -283 -269 -179 -54 -158 -183
-7 -6 -1 -3 -8 -2 0 0 -2 0 0 0 0 0 0 0 0 0 0 0 -18 0 -8 -6 -7 -2 -6 -4 0 0 -22 -24 -7 -60 -138 -176 -220 -223 -177 -263 -255 -155 -78 -88
-6 -4 -1 -4 -2 -3 -1 0 0 0 0 0 0 0 0 0 0 0 0 0 -16 -4 -2 -4 -4 -22 -8 0 -1 -9 -23 -77 -10 -26 -134 -172 -255 -137 -121 -141 -127 -117 -183 -107
-4 -4 -3 -6 -15 -9 -1 0 0 0 0 0 0 0 -20 0 0 0 -55 0 -2 -2 -4 -1 0 -26 -9 -11 -43 -88 -85 -26 0 0 -96 -111 -70 -60 -28 -66 -62 -82 -72 -69
-4 -5 -4 -4 -3 -3 0 0 0 0 -1 0 -2 -3 -5 -22 -35 -50 -13 0 0 0 -1 0 0 0 0 0 -39 -40 -74 -88 -97 -13 -80 -172 -63 -45 -34 -33 -22 -47 -81 -122
-3 -1 -4 -7 -1 0 0 0 0 0 0 -1 -1 -3 0 -40 -48 -1 0 -5 -8 -5 0 0 0 0 -52 -27 -55 -67 -39 -50 -62 -29 -9 -10 -50 -10 -1 -5 -32 -22 -13 -36
-13 -4 0 0 0 -4 0 0 0 0 0 -4 -3 -6 0 -3 -5 -10 0 0 0 0 0 0 -6 0 0 -11 -48 -20 -8 -8 -13 -28 -22 -4 -9 0 -8 0 0 -1 0 0
0 0 0 0 -3 0 0 0 0 0 -1 0 -1 -4 0 -1 -1 -3 0 0 0 0 -1 0 0 0 -14 -8 -13 -10 -2 0 -1 -58 0 0 0 0 0 0 -6 -1 0 0
0 -4 0 0 -2 0 -1 0 0 0 0 -3 -5 -10 0 0 0 0 0 0 0 0 0 0 0 -5 -10 0 0 0 0 0 -2 0 0 -8 -5 -1 0 0 0 0 0 0
0 0 0 -1 0 0 0 -2 0 0 0 -2 -6 -9 -13 -18 -2 0 -3 -3 0 0 0 0 -2 -3 -1 -5 -12 0 0 0 0 0 0 0 0 -6 -26 -18 -73 -79 0 0
0 0 0 0 -27 -25 -6 0 0 -1 -7 -3 -11 -13 -22 -2 -2 -5 -5 -2 -1 0 -1 0 -1 0 -1 0 0 -3 -1 -4 -7 -15 -35 -21 -26 -38 -10 0 0 0 0 0
0 0 0 0 0 0 0 -1 0 -3 -1 -2 -7 -3 -16 -22 -27 -1 0 -2 0 -1 0 0 0 0 -5 0 -1 -2 -27 -55 -65 -38 -39 0 -1 0 0 0 0 0 0 0
-4 0 0 -7 -4 -1 0 0 -1 0 0 -2 -25 -19 -17 -37 -19 -28 -10 -3 -2 0 0 0 0 -1 0 -1 0 -3 -23 -42 -10 0 0 0 0 0 0 0 0 0 0 0
0 0 -2 -1 -9 -7 -1 -4 -3 -2 -32 -15 -27 -39 -48 -7 -15 -10 0 0 0 0 0 0 0 -1 -4 -6 -3 -8 -18 -25 -2 0 0 0 0 0 0 0 0 0 0 0
0 0 0 0 0 0 -1 -9 -5 -44 -61 -47 -14 0 -1 -4 0 0 -1 -4 0 -1 -1 -3 -1 -1 0 0 0 -12 -11 -15 -2 -1 -1 0 0 -1 0 0 0 0 0 0
0 0 0 0 -2 0 0 -22 -45 -70 -3 -1 -1 0 0 0 -1 -1 0 0 0 0 0 0 0 0 0 0 -1 -6 -7 -8 -4 -2 -2 -2 -4 0 0 0 0 0 0 0
Wind_Speed
nan nan nan nan nan nan nan nan nan nan nan nan nan nan nan nan nan nan nan nan nan nan nan nan nan nan nan nan nan nan nan nan nan nan nan nan nan nan nan nan nan nan nan nan
nan nan nan nan nan nan nan nan nan nan nan nan nan nan nan nan nan nan nan nan nan nan nan nan nan nan nan nan nan nan nan nan nan nan nan nan nan nan nan nan nan nan nan nan
nan nan nan nan nan nan nan nan nan nan nan nan nan nan nan nan nan nan nan nan nan nan nan nan nan nan nan nan nan nan nan nan nan nan nan nan nan nan nan nan nan nan nan nan
nan nan nan nan nan nan nan nan nan nan nan nan nan nan nan nan nan nan nan nan nan nan nan nan nan nan nan nan nan nan nan nan nan nan nan nan nan nan nan nan nan nan nan nan
nan nan nan nan nan nan nan nan nan nan nan nan nan nan nan nan nan nan nan nan nan nan nan nan nan nan nan nan nan nan nan nan nan nan nan nan nan nan nan nan nan nan nan nan
nan nan 25 26 nan nan nan nan nan nan nan nan nan nan nan nan nan nan nan nan nan nan nan nan nan nan nan nan nan nan nan nan nan nan nan nan nan nan nan nan nan nan nan nan
21 nan 20 22 24 nan nan nan nan nan nan nan nan nan nan nan nan nan nan nan nan nan nan nan nan nan nan nan nan nan nan nan nan nan 11 17 nan nan nan nan nan nan nan nan
17 18 17 15 19 24 nan nan nan nan nan nan nan nan nan nan nan nan nan nan nan nan nan nan nan nan nan nan nan nan nan 39 32 25 21 nan nan nan nan nan nan nan nan nan
13 16 14 13 14 19 24 21 nan nan nan nan nan nan nan nan nan nan nan nan nan nan nan 38 35 nan nan nan nan nan nan 36 38 30 21 16 41 44 33 29 nan nan nan nan
12 11 11 11 10 13 22 16 17 nan nan nan nan nan nan nan nan nan nan nan nan 42 40 36 35 26 nan nan nan 47 45 42 35 33 26 31 53 43 36 27 27 32 nan nan
8 7 8 7 8 nan 16 15 nan nan nan nan nan nan nan nan nan nan nan nan nan 45 36 37 32 29 28 16 28 33 35 40 40 33 35 27 nan 38 33 37 29 27 20 23
5 nan nan nan nan nan nan nan 11 8 nan nan nan nan nan nan nan nan nan nan nan nan nan 42 nan 37 34 35 18 42 31 31 32 46 46 59 nan 49 44 43 37 35 28 28
nan nan nan nan nan nan nan 3 nan nan nan nan nan nan nan nan nan nan nan nan nan nan nan nan nan 35 47 39 28 40 50 51 48 41 53 nan nan nan nan 46 39 35 39 39
nan nan nan nan nan nan nan nan 4 9 nan nan nan nan nan nan nan nan nan nan nan nan nan nan nan nan 45 47 51 45 52 42 42 54 nan nan nan nan nan 47 43 44 47 43
nan nan nan nan nan nan 14 11 nan nan nan nan nan nan nan nan nan nan nan nan nan nan nan nan nan nan nan 37 33 41 41 41 29 38 nan nan nan nan nan nan nan nan 52 54
nan nan nan nan nan nan nan nan nan nan nan nan nan nan nan nan nan nan nan nan nan nan nan nan nan nan nan 36 nan nan nan 28 nan 32 nan nan nan nan nan nan nan nan nan nan
nan nan nan nan nan nan nan nan nan nan nan nan nan nan 16 nan nan nan nan nan nan nan nan nan nan nan nan nan nan nan nan nan nan nan nan nan nan nan nan nan nan nan nan nan
nan nan nan nan nan nan nan nan nan nan nan nan nan nan 15 nan nan nan nan nan nan nan nan nan nan nan nan nan nan 35 31 nan nan nan nan nan nan nan nan nan nan nan nan nan
nan nan nan nan nan nan nan nan nan nan nan nan nan nan nan nan nan nan nan nan nan nan nan nan nan nan nan nan nan 37 34 nan nan nan nan nan nan nan nan nan nan nan nan nan
nan nan nan nan nan nan nan nan nan nan nan nan nan nan nan nan nan nan nan nan nan nan nan nan nan nan nan nan nan nan nan nan nan nan nan nan nan nan nan nan nan nan nan nan
nan nan nan nan nan nan nan nan nan nan nan nan nan nan nan nan nan nan nan nan nan nan nan nan nan nan nan nan nan nan nan nan nan nan nan nan nan nan nan nan nan nan nan nan
nan nan nan nan nan nan nan nan nan nan nan nan nan nan nan nan nan nan nan nan nan nan 10 nan nan nan nan nan nan nan nan nan nan nan nan nan nan nan nan nan nan nan nan nan
nan nan nan nan nan 16 nan nan nan nan nan nan nan nan nan nan nan 19 19 nan nan 6 nan nan nan nan nan nan nan nan nan nan nan nan nan nan nan nan nan nan nan nan nan nan
nan nan nan nan nan nan nan nan nan nan nan nan nan 23 nan nan nan nan nan 9 14 nan nan nan nan nan nan nan nan nan nan nan nan nan nan nan nan nan nan nan nan nan nan nan
nan nan nan nan nan nan nan nan 19 nan nan nan nan nan nan nan nan nan 14 13 nan nan nan nan nan nan nan nan nan nan nan nan nan nan nan nan nan nan nan nan nan nan nan nan
nan nan nan 24 20 21 nan nan 14 nan nan 22 16 16 nan 18 nan nan nan nan nan nan nan nan nan nan 17 18 18 nan nan nan nan nan nan nan nan nan nan nan nan nan nan nan
nan 17 nan nan nan nan nan nan nan nan 14 12 13 14 20 19 nan nan nan nan 7 8 8 9 15 15 16 18 20 21 22 nan nan nan nan nan nan nan nan nan nan nan nan nan
Wind_Direction
nan nan nan nan nan nan nan nan nan nan nan nan nan nan nan nan nan nan nan nan nan nan nan nan nan nan nan nan nan nan nan nan nan nan nan nan nan nan nan nan nan nan nan nan
nan nan nan nan nan nan nan nan nan nan nan nan nan nan nan nan nan nan nan nan nan nan nan nan nan nan nan nan nan nan nan nan nan nan nan nan nan nan nan nan nan nan nan nan
nan nan nan nan nan nan nan nan nan nan nan nan nan nan nan nan nan nan nan nan nan nan nan nan nan nan nan nan nan nan nan nan nan nan nan nan nan nan nan nan nan nan nan nan
nan nan nan nan nan nan nan nan nan nan nan nan nan nan nan nan nan nan nan nan nan nan nan nan nan nan nan nan nan nan nan nan nan nan nan nan nan nan nan nan nan nan nan nan
nan nan nan nan nan nan nan nan nan nan nan nan nan nan nan nan nan nan nan nan nan nan nan nan nan nan nan nan nan nan nan nan nan nan nan nan nan nan nan nan nan nan nan nan
nan nan 295 292 nan nan nan nan nan nan nan nan nan nan nan nan nan nan nan nan nan nan nan nan nan nan nan nan nan nan nan nan nan nan nan nan nan nan nan nan nan nan nan nan
309 nan 289 287 299 nan nan nan nan nan nan nan nan nan nan nan nan nan nan nan nan nan nan nan nan nan nan nan nan nan nan nan nan nan 243 231 nan nan nan nan nan nan nan nan
309 312 298 284 290 303 nan nan nan nan nan nan nan nan nan nan nan nan nan nan nan nan nan nan nan nan nan nan nan nan nan 223 229 228 233 nan nan nan nan nan nan nan nan nan
310 313 309 296 293 297 290 285 nan nan nan nan nan nan nan nan nan nan nan nan nan nan nan 204 211 nan nan nan nan nan nan 227 214 244 208 230 237 237 229 231 nan nan nan nan
309 318 313 297 288 290 282 274 296 nan nan nan nan nan nan nan nan nan nan nan nan 202 198 201 208 193 nan nan nan 229 224 231 232 229 239 241 235 232 258 259 246 210 nan nan
309 318 301 302 287 nan 280 263 nan nan nan nan nan nan nan nan nan nan nan nan nan 195 192 201 202 187 190 197 249 233 233 231 232 220 239 240 nan 253 251 241 225 223 240 245
299 nan nan nan nan nan nan nan 266 261 nan nan nan nan nan nan nan nan nan nan nan nan nan 196 nan 194 187 185 217 217 223 224 228 225 239 247 nan 256 256 250 224 216 239 249
nan nan nan nan nan nan nan 248 nan nan nan nan nan nan nan nan nan nan nan nan nan nan nan nan nan 185 193 199 177 237 215 227 230 245 243 nan nan nan nan 228 223 224 224 233
nan nan nan nan nan nan nan nan 116 127 nan nan nan nan nan nan nan nan nan nan nan nan nan nan nan nan 196 195 200 204 209 206 237 242 nan nan nan nan nan 224 223 225 227 229
nan nan nan nan nan nan 95 107 nan nan nan nan nan nan nan nan nan nan nan nan nan nan nan nan nan nan nan 210 211 214 204 212 220 242 nan nan nan nan nan nan nan nan 226 222
nan nan nan nan nan nan nan nan nan nan nan nan nan nan nan nan nan nan nan nan nan nan nan nan nan nan nan 204 nan nan nan 202 nan 237 nan nan nan nan nan nan nan nan nan nan
nan nan nan nan nan nan nan nan nan nan nan nan nan nan 152 nan nan nan nan nan nan nan nan nan nan nan nan nan nan nan nan nan nan nan nan nan nan nan nan nan nan nan nan nan
nan nan nan nan nan nan nan nan nan nan nan nan nan nan 129 nan nan nan nan nan nan nan nan nan nan nan nan nan nan 198 218 nan nan nan nan nan nan nan nan nan nan nan nan nan
nan nan nan nan nan nan nan nan nan nan nan nan nan nan nan nan nan nan nan nan nan nan nan nan nan nan nan nan nan 203 214 nan nan nan nan nan nan nan nan nan nan nan nan nan
nan nan nan nan nan nan nan nan nan nan nan nan nan nan nan nan nan nan nan nan nan nan nan nan nan nan nan nan nan nan nan nan nan nan nan nan nan nan nan nan nan nan nan nan
nan nan nan nan nan nan nan nan nan nan nan nan nan nan nan nan nan nan nan nan nan nan nan nan nan nan nan nan nan nan nan nan nan nan nan nan nan nan nan nan nan nan nan nan
nan nan nan nan nan nan nan nan nan nan nan nan nan nan nan nan nan nan nan nan nan nan 133 nan nan nan nan nan nan nan nan nan nan nan nan nan nan nan nan nan nan nan nan nan
nan nan nan nan nan 98 nan nan nan nan nan nan nan nan nan nan nan 135 131 nan nan 152 nan nan nan nan nan nan nan nan nan nan nan nan nan nan nan nan nan nan nan nan nan nan
nan nan nan nan nan nan nan nan nan nan nan nan nan 131 nan nan nan nan nan 169 144 nan nan nan nan nan nan nan nan nan nan nan nan nan nan nan nan nan nan nan nan nan nan nan
nan nan nan nan nan nan nan nan 88 nan nan nan nan nan nan nan nan nan 145 155 nan nan nan nan nan nan nan nan nan nan nan nan nan nan nan nan nan nan nan nan nan nan nan nan
nan nan nan 97 116 127 nan nan 109 nan nan 90 83 126 nan 166 nan nan nan nan nan nan nan nan nan nan 210 218 216 nan nan nan nan nan nan nan nan nan nan nan nan nan nan nan
nan 75 nan nan nan nan nan nan nan nan 120 114 106 144 144 141 nan nan nan nan 144 148 158 164 192 202 211 205 208 213 217 nan nan nan nan nan nan nan nan nan nan nan nan nan